Voltar ao catálogo

FENGYUN 1C DEB

AtivoLEO
NORAD 31565·DEBRIS·🇨🇳 China

Lançado May 10, 1999 de Taiyuan Satellite Launch Center

Loading…

Próximas Passagens (próximas 24 horas)

TLE

AtualizadoSource: Space-Track

Época: Sep 14, 2026, 14:00 UTC

1 31565U 99025BZG 26257.58350353  .00007643  00000-0  22170-2 0  9993
2 31565 100.7135 204.3554 0052872 337.1797  22.7036 14.43948558683281

Acompanhe FENGYUN 1C DEB em tempo real com AllMySat

Download on the App Store